Stations météo

réclame
Mon MeteoGroup
Charleville, France (7075): Température de l'air & dewpoint: 14.11.2017 12:00:00 - 20.11.2017 12:00:00 (CET)Charleville, France (7075): Température de l'air 5cm: 14.11.2017 12:00:00 - 20.11.2017 12:00:00 (CET)Charleville, France (7075): Température de l'air -20cm & Température de l'air -100cm: 14.11.2017 12:00:00 - 20.11.2017 12:00:00 (CET)Charleville, France (7075): Vitesse du vent & gusts: 14.11.2017 12:00:00 - 20.11.2017 12:00:00 (CET)Charleville, France (7075): Direction du vent: 14.11.2017 12:00:00 - 20.11.2017 12:00:00 (CET)Charleville, France (7075): reduced air pressure: 14.11.2017 12:00:00 - 20.11.2017 12:00:00 (CET)Charleville, France (7075): visibility: 14.11.2017 12:00:00 - 20.11.2017 12:00:00 (CET)Charleville, France (7075): Ensoleillement: 14.11.2017 12:00:00 - 20.11.2017 12:00:00 (CET)Charleville, France (7075): Quantités de précipitations: 14.11.2017 12:00:00 - 20.11.2017 12:00:00 (CET)
Date & Time tt [°C] td [°C] tt 5cm [°C] tt -20cm [°C] tt -100cm [°C] ff [km/h] ff [knt] fx [km/h] fx [knt] dd ppp [hPa] vv [km] sd [min] rr [mm]
20.11.2017 12:00:00 2,8 2,2 2,8 7,0 11,5 6 3 14 7 ESE 1022,1 6 0 0,0
20.11.2017 11:00:00 1,8 1,4 1,6 7,0 11,5 9 5 18 10 E 1022,7 11 0 0,0
20.11.2017 10:00:00 0,8 0,4 0,2 7,0 11,5 8 5 12 7 SE 1023,1 5 0 0,0
20.11.2017 09:00:00 0,0 -0,4 -0,1 7,1 11,5 3 1 4 2 SE 1023,8 4,7 0 0,0
20.11.2017 08:00:00 -0,4 -0,8 -0,4 7,1 11,5 2 1 8 4 SSE 1023,8 4,6 0 0,0
20.11.2017 07:00:00 -0,7 -1,1 -0,8 7,2 11,6 5 3 8 4 SE 1023,6 0,9 0 0,0
20.11.2017 06:00:00 -1,1 -1,5 -0,9 7,2 11,5 5 3 9 5 SSE 1024,1 0,3 0 0,0
20.11.2017 05:00:00 -1,2 -1,6 -0,9 7,3 11,6 4 2 7 4 S 1024,6 0,2 0 0,0
20.11.2017 04:00:00 -0,9 -1,3 -0,8 7,4 11,6 4 2 9 5 SSE 1024,8 0,2 0 0,0
20.11.2017 03:00:00 -1,1 -1,5 -1,9 7,5 11,5 2 1 4 2 S 1025,1 0,2 0 0,0
20.11.2017 02:00:00 -2,1 -2,5 -2,9 7,5 11,5 1 0 4 2 ENE 1025,4 0,3 0 0,0
20.11.2017 01:00:00 -2,5 -2,9 -5,8 7,6 11,6 3 2 5 3 W 1026,0 0,5 0 0,0
20.11.2017 00:00:00 -3,1 -3,8 -6,2 7,7 11,6 1 0 4 2 SW 1026,2 1,6 0 0,0
19.11.2017 23:00:00 -2,4 -3,0 -5,8 7,8 11,6 2 1 6 3 ESE 1026,1 0,4 0 0,0
19.11.2017 22:00:00 -2,0 -2,6 -5,3 7,8 11,6 1 1 4 2 NW 1026,0 0,5 0 0,0
19.11.2017 21:00:00 -1,0 -1,8 -4,6 7,9 11,6 1 1 5 3 NW 1025,5 10 0 0,0
19.11.2017 20:00:00 0,1 -0,8 -3,7 7,9 11,6 4 2 10 5 NNW 1025,1 13 0 0,0
19.11.2017 19:00:00 0,3 -1,1 -2,6 7,9 11,6 6 3 9 5 NNW 1024,5 15 0 0,0
19.11.2017 18:00:00 2,0 0,2 -1,6 7,9 11,6 4 2 14 8 NW 1023,9 20 0 0,0
19.11.2017 17:00:00 5,1 1,0 3,1 7,8 11,6 11 6 19 11 W 1023,3 20 18 0,0
19.11.2017 16:00:00 7,9 1,5 9,3 7,8 11,6 10 6 23 13 W 1022,7 20 60 0,0
19.11.2017 15:00:00 8,2 1,6 10,8 7,7 11,6 14 8 25 14 W 1022,5 20 60 0,0
19.11.2017 14:00:00 8,0 1,4 12,9 7,7 11,6 15 8 25 14 W 1022,5 20 60 0,0
19.11.2017 13:00:00 7,8 2,3 9,4 7,7 11,6 16 8 26 14 WNW 1022,3 20 58 0,0
19.11.2017 12:00:00 7,0 2,1 10,0 7,7 11,6 17 9 27 15 WNW 1022,4 20 56 0,0
19.11.2017 11:00:00 5,9 3,1 8,6 7,7 11,6 12 6 20 11 WNW 1022,3 19 60 0,0
19.11.2017 10:00:00 4,4 3,5 2,0 7,8 11,6 10 6 17 9 WNW 1022,0 10 60 0,0
19.11.2017 09:00:00 1,1 0,7 -2,4 7,8 11,6 4 2 8 4 NNW 1021,7 0,9 32 0,0
19.11.2017 08:00:00 1,2 0,6 -2,1 7,8 11,6 3 1 10 5 NW 1020,6 1,3 0 0,0
19.11.2017 07:00:00 2,8 2,1 0,8 7,8 11,6 6 4 12 7 WNW 1020,0 4,0 0 0,0
19.11.2017 06:00:00 4,5 3,9 1,9 7,8 11,7 9 5 13 7 WNW 1019,5 7 0 0,0
19.11.2017 05:00:00 4,8 4,1 3,5 7,8 11,6 9 5 13 7 WNW 1019,1 10 0 0,0
19.11.2017 04:00:00 5,0 4,0 3,9 7,8 11,6 8 5 16 8 WNW 1018,8 12 0 0,0
19.11.2017 03:00:00 5,9 5,2 4,9 7,8 11,6 10 5 13 7 WNW 1018,6 10 0 0,0
19.11.2017 02:00:00 6,7 6,0 6,0 7,8 11,7 8 4 17 9 W 1018,3 11 0 0,2
19.11.2017 01:00:00 6,8 6,2 6,3 7,8 11,7 11 6 17 9 WNW 1018,5 6 0 0,4
19.11.2017 00:00:00 6,6 5,7 5,9 7,8 11,7 7 4 17 9 WSW 1018,5 9 0 1,0
18.11.2017 23:00:00 6,2 5,3 5,8 7,8 11,7 7 4 15 8 SW 1019,5 4,4 0 0,8
18.11.2017 22:00:00 6,1 5,2 5,7 7,8 11,7 6 3 26 14 WSW 1020,0 4,6 0 1,6
18.11.2017 21:00:00 5,9 5,2 4,9 7,8 11,7 9 5 18 10 WSW 1020,3 4,2 0 0,2
18.11.2017 20:00:00 4,9 4,5 3,8 7,8 11,7 4 2 9 5 NNE 1020,9 1,7 0 0,6
18.11.2017 19:00:00 3,7 3,3 1,7 7,8 11,7 4 2 8 4 E 1021,8 2,1 0 0,0
18.11.2017 18:00:00 1,9 1,0 0,0 7,8 11,7 4 2 10 5 E 1022,4 5 0 0,0
18.11.2017 17:00:00 2,4 0,8 0,8 7,7 11,7 6 3 10 5 SE 1022,6 10 11 0,0
18.11.2017 16:00:00 5,1 2,4 5,3 7,7 11,7 7 4 16 9 SW 1022,8 18 35 0,0
18.11.2017 15:00:00 5,2 2,4 7,2 7,7 11,7 6 3 14 8 WSW 1023,3 19 43 0,0
18.11.2017 14:00:00 3,8 2,6 4,4 7,7 11,7 2 1 9 5 WNW 1024,2 12 10 0,0
18.11.2017 13:00:00 2,0 1,6 3,0 7,7 11,7 3 2 7 4 NNE 1024,6 9 3 0,0
18.11.2017 12:00:00 0,5 0,1 0,1 7,8 11,7 3 2 6 3 ESE 1025,7 2,8 0 0,0
18.11.2017 11:00:00 -0,5 -0,9 -0,5 7,8 11,7 2 1 6 3 ESE 1026,2 0,7 0 0,0
18.11.2017 10:00:00 -1,5 -1,9 -1,6 7,9 11,7 2 1 4 2 NNE 1026,5 0,4 0 0,0
18.11.2017 09:00:00 -2,2 -2,6 -2,6 8,0 11,7 1 1 4 2 W 1026,4 0,3 0 0,0
18.11.2017 08:00:00 -3,1 -3,6 -3,3 8,1 11,7 3 1 5 3 ENE 1026,3 0,3 0 0,0
18.11.2017 07:00:00 -3,5 -4,0 -3,5 8,1 11,7 2 1 6 3 SSE 1026,0 0,2 0 0,0
18.11.2017 06:00:00 -3,5 -4,0 -3,6 8,3 11,7 1 1 4 2 E 1026,3 0,2 0 0,0
18.11.2017 05:00:00 -3,1 -3,6 -4,1 8,4 11,7 2 1 4 2 S 1026,8 0,2 0 0,0
18.11.2017 04:00:00 -3,7 -4,2 -6,3 8,5 11,7 2 1 4 2 E 1027,0 0,6 0 0,0
18.11.2017 03:00:00 -4,3 -5,0 -7,2 8,6 11,7 1 1 4 2 SSE 1027,6 0,4 0 0,0
18.11.2017 02:00:00 -3,1 -3,6 -6,6 8,7 11,7 3 2 4 2 NW 1027,6 0,5 0 0,0
18.11.2017 01:00:00 -3,4 -3,9 -6,3 8,8 11,7 1 1 5 3 W 1027,8 0,4 0 0,0
18.11.2017 00:00:00 -2,5 -3,1 -6,0 8,9 11,7 2 1 4 2 NW 1028,0 1,2 0 0,0
17.11.2017 23:00:00 -2,2 -2,9 -5,7 9,0 11,7 1 1 3 2 WNW 1028,1 9 0 0,0
17.11.2017 22:00:00 -1,5 -2,2 -5,1 9,0 11,7 1 0 6 3 WSW 1027,9 1,0 0 0,0
17.11.2017 21:00:00 0,3 -0,8 -3,5 9,1 11,7 2 1 6 3 W 1027,9 9 0 0,0
17.11.2017 20:00:00 1,2 0,6 -2,7 9,1 11,7 4 2 8 4 NW 1028,0 19 0 0,0
17.11.2017 19:00:00 1,5 0,5 -1,9 9,2 11,8 2 1 6 3 SSW 1027,7 13 0 0,0
17.11.2017 18:00:00 3,8 1,3 0,7 9,1 11,7 5 3 10 5 WNW 1027,6 18 0 0,0
17.11.2017 17:00:00 6,5 2,9 2,7 9,1 11,8 6 3 12 7 N 1027,0 20 8 0,0
17.11.2017 16:00:00 8,6 2,8 7,7 9,1 11,8 6 3 18 10 NNW 1027,2 20 24 0,0
17.11.2017 15:00:00 10,1 3,6 9,8 9,0 11,8 8 4 21 12 NNE 1026,9 20 52 0,0
17.11.2017 14:00:00 10,0 4,8 11,1 9,0 11,8 13 7 23 13 NNW 1027,2 20 49 0,0
17.11.2017 13:00:00 9,5 5,7 11,0 8,9 11,8 14 8 20 11 N 1027,3 20 36 0,0
17.11.2017 12:00:00 10,0 6,2 9,7 8,9 11,8 11 6 19 11 N 1027,5 20 28 0,0
17.11.2017 11:00:00 8,4 7,2 8,6 8,9 11,8 8 4 15 8 N 1027,7 12 0 0,0
17.11.2017 10:00:00 6,9 6,6 6,9 8,9 11,8 5 3 11 6 WNW 1027,9 2,3 0 0,0
17.11.2017 09:00:00 6,1 5,8 6,1 8,9 11,8 6 3 8 4 NW 1027,8 0,5 2 0,0
17.11.2017 08:00:00 5,8 5,5 5,8 8,9 11,8 3 1 5 3 WNW 1027,6 0,2 0 0,0
17.11.2017 07:00:00 5,6 5,3 5,7 8,9 11,8 1 1 4 2 N 1027,2 0,2 0 0,0
17.11.2017 06:00:00 5,4 5,0 5,6 8,9 11,8 3 2 5 3 ENE 1027,0 0,1 0 0,0
17.11.2017 05:00:00 5,9 5,5 5,7 8,9 11,8 3 2 8 4 ESE 1026,9 0,2 0 0,0
17.11.2017 04:00:00 5,6 5,2 5,8 9,0 11,8 5 3 8 4 SSE 1026,7 0,4 0 0,0
17.11.2017 03:00:00 5,7 5,1 5,8 9,0 11,8 3 2 7 4 SSE 1026,7 1,5 0 0,0
17.11.2017 02:00:00 5,9 5,2 6,0 8,9 11,8 5 3 9 5 S 1026,6 2,0 0 0,0
17.11.2017 01:00:00 6,1 5,2 6,2 9,0 11,8 3 2 6 3 SSW 1026,3 2,3 0 0,0
17.11.2017 00:00:00 6,2 4,8 6,2 8,9 11,8 1 1 5 3 SSW 1026,5 4,2 0 0,0
16.11.2017 23:00:00 6,3 5,1 6,2 8,9 11,9 3 1 5 3 W 1026,4 4,9 0 0,0
16.11.2017 22:00:00 6,3 4,9 6,3 8,9 11,8 4 2 8 5 W 1026,3 5 0 0,0
16.11.2017 21:00:00 6,9 4,7 6,8 8,9 11,9 4 2 5 3 W 1026,1 11 0 0,0
16.11.2017 20:00:00 7,2 4,7 7,0 8,9 11,9 3 2 6 3 WSW 1025,6 14 0 0,0
16.11.2017 19:00:00 7,2 5,0 7,1 8,8 11,9 1 1 7 4 NE 1025,4 16 0 0,0
16.11.2017 18:00:00 7,5 4,6 7,2 8,8 11,9 5 3 9 5 SE 1025,1 18 0 0,0
16.11.2017 17:00:00 7,8 4,6 7,3 8,7 11,9 2 1 5 3 NE 1024,9 20 0 0,0
16.11.2017 16:00:00 8,1 3,7 8,4 8,7 11,9 3 1 6 4 E 1024,4 20 6 0,0
16.11.2017 15:00:00 8,4 3,4 9,3 8,6 11,9 2 1 9 5 ENE 1024,5 19 15 0,0
16.11.2017 14:00:00 8,0 4,0 9,8 8,6 11,9 5 3 11 6 ESE 1024,6 19 0 0,0
16.11.2017 13:00:00 7,5 3,5 9,4 8,5 11,9 4 2 10 5 E 1025,1 18 0 0,0
16.11.2017 12:00:00 7,2 4,0 7,7 8,5 11,9 5 3 13 7 ESE 1025,5 18 28 0,0
16.11.2017 11:00:00 5,7 4,7 6,5 8,5 11,9 1 1 9 5 ENE 1025,9 11 6 0,0
16.11.2017 10:00:00 4,9 4,2 5,2 8,5 11,9 5 3 8 4 ESE 1025,7 10 0 0,0
16.11.2017 09:00:00 4,5 4,1 3,9 8,5 11,9 4 2 16 9 SE 1025,4 8 0 0,0
16.11.2017 08:00:00 4,6 4,3 4,0 8,5 11,9 8 4 12 6 SE 1024,7 1,2 0 0,0
16.11.2017 07:00:00 5,0 4,7 4,8 8,5 11,9 6 3 7 4 E 1024,7 0,2 0 0,0
16.11.2017 06:00:00 5,0 4,6 4,6 8,6 11,9 2 1 5 3 SSW 1024,7 0,1 0 0,0
16.11.2017 05:00:00 5,6 5,2 4,8 8,5 11,9 4 2 5 3 W 1024,7 0,2 0 0,0
16.11.2017 04:00:00 6,1 5,7 4,9 8,5 11,9 1 1 4 2 WSW 1024,9 0,2 0 0,0
16.11.2017 03:00:00 6,4 6,0 6,1 8,5 11,9 1 1 7 4 S 1025,2 0,7 0 0,0
16.11.2017 02:00:00 6,6 6,2 6,4 8,5 12,0 2 1 4 2 S 1025,3 1,5 0 0,0
16.11.2017 01:00:00 6,7 6,3 6,2 8,5 12,0 3 2 7 4 N 1025,6 1,4 0 0,0
16.11.2017 00:00:00 6,5 6,1 6,0 8,5 12,0 3 1 4 2 SSE 1025,7 0,8 0 0,0
15.11.2017 23:00:00 6,9 6,5 6,7 8,5 12,0 2 1 7 4 WNW 1026,2 2,4 0 0,0
15.11.2017 22:00:00 6,8 6,4 6,7 8,5 12,0 1 1 10 5 N 1026,1 2,1 0 0,0
15.11.2017 21:00:00 6,9 6,5 6,8 8,4 12,0 5 3 9 5 SE 1026,5 2,0 0 0,0
15.11.2017 20:00:00 6,9 6,5 6,9 8,4 12,0 6 3 9 5 ESE 1026,4 1,5 0 0,0
15.11.2017 19:00:00 6,9 6,5 6,9 8,4 12,0 4 2 6 3 E 1026,5 1,6 0 0,0
15.11.2017 18:00:00 6,9 6,5 6,9 8,3 12,0 5 3 7 4 ESE 1026,5 2,5 0 0,0
15.11.2017 17:00:00 6,9 6,5 7,0 8,3 12,1 5 3 7 4 ESE 1026,5 1,9 0 0,0
15.11.2017 16:00:00 6,9 6,5 7,1 8,2 12,0 4 2 7 4 E 1026,6 1,1 0 0,0
15.11.2017 15:00:00 7,0 6,6 7,7 8,2 12,0 4 2 9 5 E 1026,7 2,3 0 0,0
15.11.2017 14:00:00 6,7 6,3 7,3 8,2 12,0 6 3 10 6 E 1026,7 2,1 0 0,0
15.11.2017 13:00:00 6,1 5,5 6,7 8,1 12,0 8 4 12 7 E 1027,3 2,3 0 0,0
15.11.2017 12:00:00 5,7 5,1 6,4 8,1 12,0 8 4 12 7 SE 1027,9 2,1 0 0,0
15.11.2017 11:00:00 5,3 4,9 5,7 8,1 12,0 6 3 11 6 SSE 1028,0 1,4 0 0,0
15.11.2017 10:00:00 4,7 4,3 4,9 8,1 12,1 5 3 11 6 SE 1027,8 1,5 0 0,0
15.11.2017 09:00:00 4,4 3,7 4,3 8,1 12,1 3 2 8 5 SE 1028,0 3,5 0 0,0
15.11.2017 08:00:00 4,1 3,4 4,1 8,1 12,1 4 2 11 6 SE 1027,6 6 0 0,0
15.11.2017 07:00:00 4,0 3,4 4,1 8,1 12,1 8 5 16 8 SE 1027,3 4,7 0 0,0
15.11.2017 06:00:00 4,2 3,6 4,3 8,1 12,1 6 3 10 6 ESE 1027,4 4,6 0 0,0
15.11.2017 05:00:00 4,2 3,5 4,2 8,1 12,1 4 2 9 5 S 1027,5 6 0 0,0
15.11.2017 04:00:00 4,2 3,6 4,2 8,1 12,1 5 3 10 6 SSE 1027,6 4,8 0 0,0
15.11.2017 03:00:00 4,1 3,5 4,1 8,1 12,1 4 2 10 5 SSE 1028,0 4,3 0 0,0
15.11.2017 02:00:00 4,2 3,6 4,3 8,1 12,1 5 3 9 5 SE 1028,0 2,0 0 0,0
15.11.2017 01:00:00 4,1 3,4 4,1 8,1 12,2 6 3 9 5 SE 1028,0 4,1 0 0,0
15.11.2017 00:00:00 4,1 3,5 4,1 8,1 12,1 5 3 12 7 SSE 1028,0 3,7 0 0,0
14.11.2017 23:00:00 4,2 3,6 4,4 8,1 12,2 8 4 10 5 SE 1028,1 4,4 0 0,0
14.11.2017 22:00:00 4,3 3,7 4,5 8,1 12,2 7 4 11 6 SSE 1028,2 2,9 0 0,0
14.11.2017 21:00:00 4,5 3,9 4,5 8,0 12,1 6 4 13 7 SE 1028,3 2,8 0 0,0
14.11.2017 20:00:00 4,4 3,7 4,4 8,0 12,2 5 3 10 5 ESE 1028,2 4,6 0 0,0
14.11.2017 19:00:00 4,2 3,3 4,3 8,0 12,2 5 3 11 6 ESE 1027,9 5 0 0,0
14.11.2017 18:00:00 4,3 3,1 4,4 7,9 12,2 7 4 11 6 SSE 1027,5 7 0 0,0
14.11.2017 17:00:00 4,6 3,1 4,6 7,9 12,2 6 3 11 6 SW 1027,1 10 0 0,0
14.11.2017 16:00:00 5,5 3,0 5,8 7,8 12,2 8 4 13 7 WSW 1027,2 15 36 0,0
14.11.2017 15:00:00 5,9 4,5 6,7 7,8 12,2 6 4 11 6 E 1026,8 9 4 0,0
14.11.2017 14:00:00 5,2 4,2 6,3 7,8 12,2 2 1 7 4 NNW 1027,2 6 0 0,0
14.11.2017 13:00:00 4,3 3,6 5,2 7,8 12,2 5 3 9 5 E 1027,8 5 0 0,0
14.11.2017 12:00:00 3,7 3,3 4,3 7,7 12,2 1 1 12 7 ESE 1028,0 5 0 0,0

tt = Température de l'air
td = dewpoint
tt 5cm = Température de l'air 5cm
tt -20cm = Température de l'air -20cm
tt -100cm = Température de l'air -100cm
ff = Vitesse du vent
fx = gusts
dd = Direction du vent
ppp = reduced air pressure
vv = visibility
sd = Ensoleillement
rr = Quantités de précipitations

stations d'obs. à proximité